Location: Star Hoppers Observatory
(42.7905°N, 83.6127°W)
Time: 16:34:28
(UTC-04:00)

Daily predictions for brighter satellites

Satellite Brightness Start Highest point End
(mag) Time Altitude Azimuth Time Altitude Azimuth Time Altitude Azimuth
BREEZE M DEB (TANK) 4.3 21:13:45 10° WNW 21:29:40 66° NNE 21:34:02 10° E
Resurs 1-3 3.7 21:27:16 10° SSE 21:31:39 87° WSW 21:36:04 10° NNW
Tsikada Rocket 4.2 21:25:22 10° N 21:31:44 64° E 21:38:06 10° SSE
Cosmos 2360 4.3 21:26:05 10° NNW 21:31:49 84° WSW 21:37:31 10° SSE
Cosmos 1725 Rocket 4.0 21:29:37 10° S 21:35:45 75° E 21:41:58 10° N
SL-24 R/B 4.5 21:31:22 10° S 21:36:14 81° E 21:41:29 10° N
NOSS 3-2 (A) 3.4 21:34:04 10° SSW 21:39:49 63° ESE 21:46:13 10° NE
USA 234 3.3 21:33:27 10° NE 21:40:00 67° SE 21:46:32 10° SW
Shenzhou-11 Module 1.9 21:39:11 10° W 21:42:10 89° N 21:45:09 10° E
NOSS 3-2 (C) 3.6 21:38:59 10° S 21:44:35 48° ESE 21:50:45 10° NE
H-2A R/B 2.9 21:41:51 10° SE 21:46:13 33° ENE 21:50:41 10° N
Cosmos 1697 Rocket 4.1 21:43:03 10° NW 21:48:09 35° WSW 21:53:13 10° S
YAOGAN 6 4.3 21:45:17 10° SSW 21:48:39 33° W 21:52:03 10° NNW
Cosmos 1898 Rocket 3.9 21:43:44 10° N 21:48:55 52° ENE 21:53:56 11° SE
Cosmos 1455 Rocket 4.5 21:46:34 10° NNE 21:49:59 22° ENE 21:53:03 12° ESE
DNEPR-1 R/B 3.6 21:47:20 10° SSW 21:51:33 89° WNW 21:56:23 10° NE
ERS-1 Rocket 4.0 21:47:52 10° SE 21:52:10 31° ENE 21:56:33 10° N
Cosmos 1500 4.5 21:48:37 10° NNW 21:52:17 42° W 21:55:56 10° SSW
Cosmos 2208 Rocket 3.9 21:48:51 10° S 21:54:00 69° ESE 21:59:09 10° NNE
SPOT 5 4.4 21:51:52 10° ESE 21:54:54 19° ENE 21:58:01 10° NNE
Cosmos 2360 Rocket 3.6 21:53:27 10° N 21:58:06 25° NE 22:02:36 10° ESE
SL-08 RB Rocket 4.4 21:55:16 12° SE 21:59:07 40° ENE 22:03:22 10° N
Cosmos 1378 Rocket 3.8 21:55:14 10° SSW 21:59:32 73° W 22:03:51 10° N
Okean 1 Rocket 3.4 21:56:05 10° NNW 22:00:25 68° W 22:04:43 10° S
Cosmos 1975 Rocket 3.2 21:56:30 10° S 22:00:43 53° E 22:04:56 10° NNE
Cosmos 1980 Rocket 3.0 21:55:36 10° NW 22:01:01 48° WSW 22:06:27 10° S
Cosmos 1242 Rocket 2.7 21:59:08 10° N 22:02:46 58° ENE 22:05:48 14° SSE
ATLAS CENTAUR R/B 4.2 21:56:56 10° SSW 22:03:13 70° SE 22:22:35 10° NE
COSMOS 2487 4.3 22:00:12 10° SW 22:03:26 35° WNW 22:06:43 10° N
Okean 1 3.8 22:01:11 10° SSW 22:05:12 64° W 22:09:16 10° N
Cosmos 1666 2.7 22:03:18 10° N 22:07:12 86° E 22:10:56 11° S
Meteor 2-9 Rocket 4.5 22:04:01 10° N 22:09:11 47° ENE 22:13:23 15° SE
Terra 3.8 22:07:46 10° E 22:10:25 15° ENE 22:13:04 10° NNE
Cosmos 990 Rocket 4.2 22:06:20 10° NNW 22:11:30 59° ENE 22:15:33 16° SE
CENTAUR R/B 3.0 22:06:31 10° S 22:11:45 34° ESE 22:17:39 10° NE
Lacrosse 5 rocket 3.3 22:10:04 10° NNW 22:13:37 23° NNE 22:17:01 10° E
Cosmos 1743 2.7 22:10:21 10° N 22:14:12 85° W 22:17:39 12° S
ERS-2 4.4 22:11:41 10° SSW 22:14:36 22° W 22:17:32 10° NW
deb Kosmos-1763 4.0 22:12:18 10° SSW 22:16:00 79° ESE 22:19:43 10° NNE
Cosmos 2333 Rocket 4.5 22:14:39 10° NNE 22:16:38 12° NE 22:18:37 10° ENE
Cosmos 2233 Rocket 4.0 22:11:01 10° S 22:17:10 84° W 22:23:24 10° N
Cosmos 1544 Rocket 4.1 22:13:00 10° N 22:17:13 42° ENE 22:20:00 19° SE
Resurs 01 Rocket 3.4 22:14:45 10° SSW 22:18:35 29° W 22:22:26 10° NW
Cosmos 2150 Rocket 4.4 22:15:26 10° N 22:20:43 51° ENE 22:24:19 19° SE
ISS -2.8 22:18:24 10° WSW 22:21:36 50° NNW 22:24:48 10° NE
ATLAS 3B R/B 3.5 22:16:40 10° SW 22:23:41 56° NW 22:30:28 10° NNE
BREEZE-M DEB (TANK) 3.3 22:22:52 10° W 22:24:34 15° SW 22:25:21 13° SSW
Helios 1A 3.8 22:22:56 20° SE 22:25:12 36° ENE 22:29:03 10° N
Iridium 2 3.6 22:21:42 12° S 22:25:15 84° E 22:29:06 10° N
Meteor 2-4 Rocket 3.7 22:22:16 10° S 22:27:36 62° E 22:33:05 10° NNE
Abrixas rocket 2.0 22:27:48 10° WSW 22:31:02 83° SSE 22:34:15 10° ENE
MetOp-A 4.2 22:26:41 13° S 22:31:26 79° WSW 22:36:49 10° NNW
SJ 16-02 2.8 22:29:20 10° N 22:33:02 25° ENE 22:35:06 18° E
Cosmos 1536 Rocket 4.2 22:31:59 23° SE 22:34:04 37° E 22:38:10 10° NNE
Aureole 2 Rocket 2.8 22:31:19 10° N 22:34:09 37° ENE 22:34:51 31° E
Cosmos 2084 3.3 22:33:07 10° SSW 22:37:27 84° SE 22:41:33 10° NE
Cosmos 2298 Rocket 4.0 22:35:28 10° NNW 22:40:48 84° ENE 22:44:05 24° SSE
Cosmos 1340 Rocket 2.8 22:38:32 22° S 22:41:03 64° E 22:45:05 10° NNE
Tiangong 2 0.9 22:42:20 10° WSW 22:45:28 71° SSE 22:46:40 34° E
Cosmos 2322 4.4 22:40:45 10° NNW 22:46:11 42° ENE 22:49:20 23° ESE
Okean 2 4.4 22:48:13 27° ESE 22:48:57 29° E 22:52:35 10° NNE
Cosmos 1937 Rocket 3.7 22:44:54 10° NNW 22:49:59 64° WSW 22:53:17 22° S
Timation 2 Rocket 4.4 22:44:39 10° SW 22:50:32 60° WNW 22:56:34 10° NNE
Cosmos 1515 3.7 22:49:22 33° SSE 22:50:50 58° E 22:54:37 10° NNE
Cosmos 2322 Rocket 2.5 22:45:48 10° NNW 22:51:19 60° WSW 22:54:59 21° S
USA 32 4.1 22:46:56 10° N 22:52:11 79° W 22:55:51 20° S
CZ-2C R/B 4.3 22:50:39 21° ESE 22:53:09 30° ENE 22:57:57 10° N
Cosmos 2237 Rocket 4.5 22:51:38 10° NNE 22:54:04 13° NE 22:56:30 10° ENE
Cosmos 292 Rocket 3.6 22:51:02 14° SSW 22:55:06 78° ESE 22:59:52 10° NNE
Cosmos 540 Rocket 3.6 22:54:43 26° SSE 22:57:20 51° ESE 23:02:21 10° NNE
ARGOS 4.0 22:53:02 13° S 22:57:37 45° W 23:02:49 10° NNW
SL-16 R/B 2.9 22:53:48 10° NW 22:59:15 49° WSW 23:02:56 20° S
Cosmos 1763 Rocket 4.0 22:54:17 10° SSW 22:59:33 63° WNW 23:04:49 10° NNE
Cosmos 1356 Rocket 4.4 22:59:33 29° ESE 23:00:01 30° E 23:03:46 10° NNE
Cosmos 1513 Rocket 4.4 22:55:40 18° S 23:00:20 81° E 23:06:33 10° N
Cosmos 2034 Rocket 4.0 22:56:40 23° S 23:00:37 66° E 23:06:43 10° NNE
Helios 1B rocket 2.5 22:58:03 10° NNE 23:02:09 56° E 23:03:22 39° SSE
Cosmos 841 Rocket 3.5 22:57:59 10° SSW 23:03:14 83° WNW 23:08:33 10° NNE
Meteor 1-15 Rocket 4.2 22:58:29 10° N 23:04:15 71° ENE 23:07:01 31° SSE
Cosmos 1464 Rocket 4.1 22:59:58 14° S 23:05:33 84° W 23:11:59 10° N
CARTOSAT-1 3.9 23:05:34 37° SE 23:06:53 52° ENE 23:11:05 10° N
IGS 5A 3.7 23:07:25 40° SE 23:08:33 54° ENE 23:12:38 10° N
USA 245 4.0 23:09:36 28° SSW 23:10:54 42° W 23:14:48 10° NNW
Cosmos 2237 4.3 23:08:37 10° NNW 23:14:21 68° ENE 23:16:47 35° SE
Cosmos 2219 4.2 23:16:52 27° ESE 23:17:12 27° ESE 23:21:55 10° NE
Shenzhou-11 Module 2.7 23:15:15 10° W 23:17:27 43° WSW 23:17:27 43° WSW
Cosmos 372 Rocket 4.1 23:13:17 10° NNW 23:18:24 63° ENE 23:20:07 40° SE
SPOT 1/Viking Rocket 3.7 23:19:06 31° S 23:21:33 68° WSW 23:26:43 10° NNW
USA 234 4.4 23:16:39 10° NE 23:22:48 45° NNW 23:28:58 10° W
YAOGAN 11 4.4 23:21:44 43° ESE 23:22:48 55° ENE 23:27:14 10° N
BREEZE-M R/B 4.2 23:21:36 10° WNW 23:24:15 25° NNW 23:26:22 10° NE
H-2A R/B 3.5 23:22:15 14° SSW 23:25:38 29° W 23:30:01 10° NW
Cosmos 1025 Rocket 3.0 23:25:46 53° SE 23:26:30 63° E 23:30:50 10° NNE
Cosmos 1455 Rocket 4.5 23:23:59 10° NNW 23:27:51 32° W 23:30:10 19° SW
Landsat 7 3.9 23:27:11 39° S 23:28:53 68° WSW 23:33:39 10° NNW
Cosmos 1634 Rocket 4.4 23:27:48 35° SE 23:29:49 46° E 23:35:49 10° NNE
ERS-1 Rocket 4.3 23:27:52 18° SSW 23:30:53 32° W 23:35:23 10° NNW
SPOT 5 3.4 23:30:59 31° SSW 23:32:37 45° W 23:36:58 10° NNW
Meteor 1-29 3.2 23:35:40 10° N 23:39:08 64° WNW 23:39:26 61° WSW
CZ-4C R/B 3.2 23:32:27 10° NNW 23:39:30 60° NE 23:43:41 29° ESE
Cosmos 2333 4.3 23:34:09 10° NNW 23:39:48 67° ENE 23:41:35 43° SE
Cosmos 2360 Rocket 2.6 23:36:56 10° NNW 23:42:24 53° WSW 23:44:22 36° SSW
Cosmos 1125 Rocket 3.4 23:39:02 10° NNW 23:44:19 85° WSW 23:45:40 51° SSE
Terra 1.9 23:46:26 49° SSW 23:47:36 68° W 23:52:21 10° NNW
Cosmos 2219 Rocket 2.6 23:42:30 10° NNW 23:47:57 51° ENE 23:49:36 39° ESE
SAR-Lupe-4 4.4 23:50:57 42° NE 23:50:57 42° NE 23:53:59 10° N
CZ-2C R/B 2.8 23:45:22 10° NNE 23:50:57 60° E 23:52:08 49° SSE
Lacrosse 5 rocket 1.2 23:49:01 10° NW 23:53:13 74° WSW 23:53:13 74° WSW
Cosmos 1544 3.2 23:49:56 10° N 23:53:19 69° NNE 23:53:19 69° NNE
H-2A R/B 4.3 23:53:44 13° ENE 23:54:33 14° ENE 23:56:42 10° NNE
